Flight Track Log - Related Links

Times and Time Zones

All times are in EDT time to prevent confusion due to time zone crossing. See the FFT975 flight status page for this flight to view local times or setup timezone preferences in your user account.

Time Position Orientation Groundspeed Altitude Reporting Facility
EDT Latitude Longitude Course Direction KTS km/h meters Rate Location/Type
Sun 07:07:16 40.2590 -74.8370 221° Southwest 138 256 488  Level FlightAware ADS-B
Sun 07:07:32 40.2500 -74.8460 217° Southwest 148 274 640 457 Climbing FlightAware ADS-B
Sun 07:07:52 40.2370 -74.8610 221° Southwest 181 335 762 375 Climbing FlightAware ADS-B
Sun 07:08:11 40.2270 -74.8750 227° Southwest 204 378 884 406 Climbing FlightAware ADS-B
Sun 07:08:28 40.2130 -74.8920 223° Southwest 236 438 1,006 504 Climbing FlightAware ADS-B
Sun 07:08:40 40.2010 -74.9020 212° Southwest 256 475 1,128 653 Climbing FlightAware ADS-B
Sun 07:08:56 40.1840 -74.9140 208° Southwest 272 504 1,311 863 Climbing FlightAware ADS-B
Sun 07:09:16 40.1620 -74.9290 208° Southwest 279 517 1,646 960 Climbing FlightAware ADS-B
Sun 07:09:36 40.1380 -74.9460 208° Southwest 280 518 1,951 762 Climbing FlightAware ADS-B
Sun 07:09:52 40.1200 -74.9590 209° Southwest 284 526 2,103 356 Climbing FlightAware ADS-B
Sun 07:10:12 40.0980 -74.9740 208° Southwest 287 531 2,164 91 Climbing FlightAware ADS-B
Sun 07:10:32 40.0740 -74.9920 210° Southwest 288 533 2,164  Level FlightAware ADS-B
Sun 07:10:48 40.0560 -75.0050 209° Southwest 290 538 2,164 152 Level FlightAware ADS-B
Sun 07:10:56 40.0470 -75.0110 207° Southwest 290 538 2,225 468 Climbing FlightAware ADS-B
Sun 07:11:31 40.0040 -75.0410 208° Southwest 295 546 2,499 466 Climbing FlightAware ADS-B
Sun 07:11:47 39.9850 -75.0550 209° Southwest 296 549 2,621 457 Climbing FlightAware ADS-B
Sun 07:12:07 39.9610 -75.0720 208° Southwest 294 544 2,774 469 Climbing FlightAware ADS-B
Sun 07:12:26 39.9380 -75.0890 210° Southwest 296 549 2,926 418 Climbing FlightAware ADS-B
Sun 07:12:42 39.9200 -75.1020 209° Southwest 299 554 3,018 152 Climbing FlightAware ADS-B
Sun 07:13:14 39.8760 -75.1330 208° Southwest 337 624 3,048 53 Climbing FlightAware ADS-B
Sun 07:13:51 39.8260 -75.1690 209° Southwest 347 642 3,078 25 Climbing FlightAware ADS-B
Sun 07:14:28 39.7730 -75.2060 208° Southwest 349 647 3,078  Level FlightAware ADS-B
Sun 07:15:00 39.7270 -75.2390 209° Southwest 349 647 3,078 246 Level FlightAware ADS-B
Sun 07:15:35 39.6790 -75.2730 209° Southwest 348 644 3,353 657 Climbing FlightAware ADS-B
Sun 07:16:04 39.6370 -75.3000 206° Southwest 356 660 3,780 816 Climbing FlightAware ADS-B
Sun 07:16:40 39.5740 -75.3150 190° South 375 695 4,237 753 Climbing FlightAware ADS-B
Sun 07:17:12 39.5180 -75.3250 188° South 385 713 4,633 591 Climbing FlightAware ADS-B
Sun 07:17:45 39.4630 -75.3350 188° South 390 723 4,877 229 Climbing FlightAware ADS-B
Sun 07:18:24 39.3900 -75.3480 188° South 392 726 4,907 24 Climbing FlightAware ADS-B
Sun 07:19:01 39.3210 -75.3600 188° South 394 729 4,907 81 Level FlightAware ADS-B
Sun 07:19:32 39.2660 -75.3700 188° South 396 734 4,999 186 Climbing FlightAware ADS-B
Sun 07:20:10 39.1980 -75.3820 188° South 399 739 5,121 261 Climbing FlightAware ADS-B
Sun 07:20:42 39.1390 -75.3910 187° South 404 748 5,304 538 Climbing FlightAware ADS-B
Sun 07:21:18 39.0700 -75.4020 187° South 409 758 5,730 651 Climbing FlightAware ADS-B
Sun 07:21:55 39.0000 -75.4120 186° South 418 774 6,096 601 Climbing FlightAware ADS-B
Sun 07:22:31 38.9300 -75.4230 187° South 424 785 6,462 672 Climbing FlightAware ADS-B
Sun 07:23:03 38.8680 -75.4320 186° South 422 782 6,858 655 Climbing FlightAware ADS-B
Sun 07:23:38 38.7970 -75.4430 187° South 431 798 7,193 464 Climbing FlightAware ADS-B
Sun 07:24:14 38.7250 -75.4540 187° South 445 824 7,407 464 Climbing FlightAware ADS-B
Sun 07:24:49 38.6530 -75.4650 187° South 449 832 7,742 504 Climbing FlightAware ADS-B
Sun 07:25:23 38.5840 -75.4750 186° South 454 840 7,986 497 Climbing FlightAware ADS-B
Sun 07:25:59 38.5090 -75.4860 187° South 454 840 8,321 559 Climbing FlightAware ADS-B
Sun 07:26:35 38.4330 -75.4980 187° South 455 843 8,656 482 Climbing FlightAware ADS-B
Sun 07:27:11 38.3610 -75.5190 193° South 454 840 8,900 355 Climbing FlightAware ADS-B
Sun 07:27:42 38.2940 -75.5350 191° South 465 861 9,053 296 Climbing FlightAware ADS-B
Sun 07:28:19 38.2150 -75.5520 190° South 473 875 9,235 330 Climbing FlightAware ADS-B
Sun 07:28:54 38.1410 -75.5680 190° South 477 884 9,449 432 Climbing FlightAware ADS-B
Sun 07:29:31 38.0600 -75.5890 192° South 470 871 9,754 477 Climbing FlightAware ADS-B
Sun 07:30:03 37.9970 -75.6220 202° Southwest 459 850 9,997 457 Climbing FlightAware ADS-B
Sun 07:30:39 37.9320 -75.6720 211° Southwest 454 840 10,272 432 Climbing FlightAware ADS-B
Sun 07:31:15 37.8680 -75.7210 211° Southwest 454 840 10,516 404 Climbing FlightAware ADS-B
Sun 07:31:47 37.8120 -75.7630 211° Southwest 450 834 10,729 350 Climbing FlightAware ADS-B
Sun 07:32:23 37.7500 -75.8110 211° Southwest 451 835 10,912 314 Climbing FlightAware ADS-B
Sun 07:32:57 37.6860 -75.8600 211° Southwest 450 834 11,095 330 Climbing FlightAware ADS-B
Sun 07:33:35 37.6190 -75.9110 211° Southwest 447 827 11,308 258 Climbing FlightAware ADS-B
Sun 07:34:08 37.5590 -75.9560 211° Southwest 453 838 11,400 150 Climbing FlightAware ADS-B
Sun 07:34:48 37.4910 -76.0080 211° Southwest 451 835 11,491 144 Climbing FlightAware ADS-B
Sun 07:35:24 37.4220 -76.0590 210° Southwest 453 838 11,582 103 Climbing FlightAware ADS-B
Sun 07:35:59 37.3600 -76.1060 211° Southwest 448 830 11,613 26 Climbing FlightAware ADS-B
Sun 07:36:34 37.3000 -76.1510 211° Southwest 437 810 11,613  Level FlightAware ADS-B
Sun 07:37:11 37.2340 -76.2010 211° Southwest 439 813 11,613  Level FlightAware ADS-B
Sun 07:37:46 37.1730 -76.2470 211° Southwest 438 811 11,613 -24 Level FlightAware ADS-B
Sun 07:38:26 37.1030 -76.2990 211° Southwest 445 824 11,582 -23 Descending FlightAware ADS-B
Sun 07:39:04 37.0300 -76.3530 211° Southwest 446 826 11,582  Level FlightAware ADS-B
Sun 07:39:40 36.9690 -76.3990 211° Southwest 448 830 11,582  Level FlightAware ADS-B
Sun 07:40:12 36.9100 -76.4430 211° Southwest 450 834 11,582 27 Level FlightAware ADS-B
Sun 07:40:48 36.8450 -76.4910 211° Southwest 451 835 11,613 25 Climbing FlightAware ADS-B
Sun 07:41:24 36.7810 -76.5380 210° Southwest 453 838 11,613  Level FlightAware ADS-B
Sun 07:42:00 36.7150 -76.5860 210° Southwest 453 838 11,613  Level FlightAware ADS-B
Sun 07:42:32 36.6560 -76.6300 211° Southwest 452 837 11,613  Level FlightAware ADS-B
Sun 07:43:17 36.5790 -76.6870 211° Southwest 448 830 11,613  Level FlightAware ADS-B
Sun 07:43:53 36.5150 -76.7330 210° Southwest 446 826 11,613  Level FlightAware ADS-B
Sun 07:44:33 36.4440 -76.7860 211° Southwest 437 810 11,613 -24 Level FlightAware ADS-B
Sun 07:45:08 36.3820 -76.8310 210° Southwest 434 803 11,582 -28 Descending FlightAware ADS-B
Sun 07:45:39 36.3300 -76.8700 211° Southwest 433 801 11,582  Level FlightAware ADS-B
Sun 07:46:13 36.2680 -76.9140 210° Southwest 434 803 11,582  Level FlightAware ADS-B
Sun 07:46:53 36.1970 -76.9660 211° Southwest 434 803 11,582  Level FlightAware ADS-B
Sun 07:47:23 36.1450 -77.0040 211° Southwest 435 806 11,582  Level FlightAware ADS-B
Sun 07:48:08 36.0650 -77.0610 210° Southwest 436 808 11,582  Level FlightAware ADS-B
Sun 07:48:49 36.0000 -77.1090 211° Southwest 445 824 11,582 22 Level FlightAware ADS-B
Sun 07:49:33 35.9170 -77.1700 211° Southwest 440 814 11,613 26 Climbing FlightAware ADS-B
Sun 07:50:00 35.8670 -77.2110 214° Southwest 449 832 11,613  Level FlightAware ADS-B
Sun 07:50:43 35.7940 -77.2700 213° Southwest 450 834 11,613  Level FlightAware ADS-B
Sun 07:51:18 35.7320 -77.3210 214° Southwest 451 835 11,613  Level FlightAware ADS-B
Sun 07:51:54 35.6690 -77.3720 213° Southwest 451 835 11,613  Level FlightAware ADS-B
Sun 07:52:44 35.5890 -77.4350 213° Southwest 451 835 11,613  Level FlightAware ADS-B
Sun 07:53:28 35.5160 -77.4940 213° Southwest 452 837 11,613  Level FlightAware ADS-B
Sun 07:54:03 35.4530 -77.5450 213° Southwest 451 835 11,613  Level FlightAware ADS-B
Sun 07:54:39 35.3870 -77.5980 213° Southwest 450 834 11,613  Level FlightAware ADS-B
Sun 07:55:15 35.3260 -77.6460 213° Southwest 448 830 11,613 -25 Level FlightAware ADS-B
Sun 07:55:51 35.2650 -77.6950 213° Southwest 447 827 11,582 -26 Descending FlightAware ADS-B
Sun 07:56:25 35.1970 -77.7490 213° Southwest 446 826 11,582  Level FlightAware ADS-B
Sun 07:57:01 35.1400 -77.7950 213° Southwest 447 827 11,582  Level FlightAware ADS-B
Sun 07:57:43 35.0640 -77.8550 213° Southwest 448 830 11,582  Level FlightAware ADS-B
Sun 07:58:19 35.0010 -77.9050 213° Southwest 450 834 11,582 28 Level FlightAware ADS-B
Sun 07:58:49 34.9490 -77.9460 213° Southwest 451 835 11,613 26 Climbing FlightAware ADS-B
Sun 07:59:29 34.8790 -78.0010 213° Southwest 452 837 11,613  Level FlightAware ADS-B
Sun 08:00:07 34.8110 -78.0540 213° Southwest 453 838 11,613  Level FlightAware ADS-B
Sun 08:00:48 34.7370 -78.1130 213° Southwest 453 838 11,613  Level FlightAware ADS-B
Sun 08:01:23 34.6770 -78.1600 213° Southwest 454 840 11,613  Level FlightAware ADS-B
Sun 08:01:54 34.6230 -78.2020 213° Southwest 447 827 11,613 -20 Level FlightAware ADS-B
Sun 08:02:54 34.5303 -78.2806 213° Southwest 459 850 11,582 -15 Descending Jacksonville Center
Sun 08:03:54 34.4247 -78.3617 213° Southwest 459 850 11,582  Level Jacksonville Center
Sun 08:04:54 34.3169 -78.4428 212° Southwest 440 814 11,582  Level Jacksonville Center
Sun 08:05:54 34.2114 -78.5261 213° Southwest 445 824 11,582  Level Jacksonville Center
Sun 08:06:54 34.1058 -78.6067 212° Southwest 450 834 11,582  Level Jacksonville Center
Sun 08:07:54 33.9892 -78.6750 206° Southwest 455 843 11,582  Level Jacksonville Center
Sun 08:08:54 33.8725 -78.7406 205° Southwest 461 855 11,582  Level Jacksonville Center
Sun 08:09:54 33.7575 -78.8008 204° Southwest 461 855 11,582  Level Jacksonville Center
Sun 08:10:54 33.6386 -78.8639 204° Southwest 461 855 11,582  Level Jacksonville Center
Sun 08:11:54 33.5197 -78.9314 205° Southwest 461 855 11,582  Level Jacksonville Center
Sun 08:12:54 33.4047 -78.9889 203° Southwest 461 855 11,582  Level Jacksonville Center
Sun 08:13:54 33.2917 -79.0511 205° Southwest 454 840 11,582  Level Jacksonville Center
Sun 08:14:54 33.1747 -79.1181 206° Southwest 460 851 11,582  Level Jacksonville Center
Sun 08:15:54 33.0556 -79.1800 204° Southwest 460 851 11,582  Level Jacksonville Center
Sun 08:16:54 32.9344 -79.2444 204° Southwest 466 863 11,582  Level Jacksonville Center
Sun 08:17:54 32.8172 -79.3086 205° Southwest 471 872 11,582 15 Level Jacksonville Center
Sun 08:18:54 32.6981 -79.3725 204° Southwest 471 872 11,613  Climbing Jacksonville Center
Sun 08:19:54 32.5767 -79.4364 204° Southwest 477 884 11,582 -15 Descending Jacksonville Center
Sun 08:20:54 32.4614 -79.4972 204° Southwest 472 874 11,582  Level Jacksonville Center
Sun 08:21:54 32.3439 -79.5608 205° Southwest 467 864 11,582  Level Jacksonville Center
Sun 08:22:54 32.2267 -79.6214 204° Southwest 467 864 11,582 15 Level Jacksonville Center
Sun 08:23:54 32.1092 -79.6869 205° Southwest 467 864 11,613  Climbing Jacksonville Center
Sun 08:24:54 31.9939 -79.7450 203° Southwest 467 864 11,582 -15 Descending Jacksonville Center
Sun 08:25:54 31.8764 -79.8078 204° Southwest 462 856 11,582  Level Jacksonville Center
Sun 08:26:54 31.7631 -79.8675 204° Southwest 455 843 11,582  Level Jacksonville Center
Sun 08:27:54 31.6475 -79.9275 204° Southwest 455 843 11,582  Level Jacksonville Center
Sun 08:28:54 31.5319 -79.9847 203° Southwest 455 843 11,582  Level Jacksonville Center
Sun 08:34:20 30.8860 -80.3180 203° Southwest 454 840 11,582  Level FlightAware ADS-B
Sun 08:34:51 30.8270 -80.3480 204° Southwest 454 840 11,582  Level FlightAware ADS-B
Sun 08:35:27 30.7580 -80.3830 204° Southwest 455 843 11,582 27 Level FlightAware ADS-B
Sun 08:36:00 30.6950 -80.4150 204° Southwest 457 847 11,613 25 Climbing FlightAware ADS-B
Sun 08:36:40 30.6160 -80.4560 204° Southwest 458 848 11,613  Level FlightAware ADS-B
Sun 08:37:11 30.5550 -80.4870 204° Southwest 456 845 11,613  Level FlightAware ADS-B
Sun 08:37:49 30.4820 -80.5230 203° Southwest 455 843 11,613  Level FlightAware ADS-B
Sun 08:38:23 30.4150 -80.5570 204° Southwest 453 838 11,613  Level FlightAware ADS-B
Sun 08:38:56 30.3540 -80.5880 204° Southwest 450 834 11,613 -26 Level FlightAware ADS-B
Sun 08:39:33 30.2800 -80.6150 197° South 449 832 11,582 -25 Descending FlightAware ADS-B
Sun 08:40:09 30.2050 -80.6120 178° South 445 824 11,582  Level FlightAware ADS-B
Sun 08:40:44 30.1330 -80.6030 174° South 444 822 11,582  Level FlightAware ADS-B
Sun 08:41:15 30.0710 -80.5960 174° South 444 822 11,582  Level FlightAware ADS-B
Sun 08:41:55 29.9870 -80.5850 174° South 444 822 11,582 26 Level FlightAware ADS-B
Sun 08:42:26 29.9260 -80.5780 174° South 443 821 11,613 27 Climbing FlightAware ADS-B
Sun 08:43:03 29.8490 -80.5690 174° South 443 821 11,613  Level FlightAware ADS-B
Sun 08:43:39 29.7790 -80.5600 174° South 442 819 11,613  Level FlightAware ADS-B
Sun 08:44:15 29.7050 -80.5510 174° South 441 816 11,613 -28 Level FlightAware ADS-B
Sun 08:44:44 29.6460 -80.5440 174° South 441 816 11,582  Descending FlightAware ADS-B
Sun 08:45:30 29.5520 -80.5330 174° South 439 813 11,613  Climbing FlightAware ADS-B
Sun 08:46:14 29.4650 -80.5220 174° South 439 813 11,582 -24 Descending FlightAware ADS-B
Sun 08:46:45 29.3980 -80.5140 174° South 440 814 11,582  Level FlightAware ADS-B
Sun 08:47:19 29.3290 -80.5060 174° South 440 814 11,582 25 Level FlightAware ADS-B
Sun 08:47:58 29.2490 -80.4960 174° South 441 816 11,613 25 Climbing FlightAware ADS-B
Sun 08:48:31 29.1820 -80.4880 174° South 441 816 11,613  Level FlightAware ADS-B
Sun 08:49:05 29.1130 -80.4800 174° South 441 816 11,613  Level FlightAware ADS-B
Sun 08:49:42 29.0400 -80.4710 174° South 442 819 11,613  Level FlightAware ADS-B
Sun 08:50:15 28.9730 -80.4630 174° South 442 819 11,613 -27 Level FlightAware ADS-B
Sun 08:50:50 28.9030 -80.4550 174° South 443 821 11,582  Descending FlightAware ADS-B
Sun 08:51:29 28.8210 -80.4420 172° South 446 826 11,613 23 Climbing FlightAware ADS-B
Sun 08:52:10 28.7420 -80.4100 160° South 449 832 11,613  Level FlightAware ADS-B
Sun 08:52:40 28.6820 -80.3830 158° South 447 827 11,613  Level FlightAware ADS-B
Sun 08:53:18 28.6130 -80.3520 158° South 444 822 11,613 -24 Level FlightAware ADS-B
Sun 08:53:56 28.5370 -80.3180 159° South 439 813 11,582 -24 Descending FlightAware ADS-B
Sun 08:54:35 28.4620 -80.2850 159° South 435 806 11,582  Level FlightAware ADS-B
Sun 08:55:12 28.3960 -80.2550 158° South 432 800 11,582  Level FlightAware ADS-B
Sun 08:55:58 28.3090 -80.2170 159° South 428 793 11,582 -69 Level FlightAware ADS-B
Sun 08:56:32 28.2470 -80.1910 160° South 424 785 11,491 -242 Descending FlightAware ADS-B
Sun 08:57:06 28.1830 -80.1720 165° South 420 777 11,308 -301 Descending FlightAware ADS-B
Sun 08:57:45 28.1050 -80.1540 168° South 429 795 11,125 -206 Descending FlightAware ADS-B
Sun 08:58:26 28.0360 -80.1370 168° South 433 801 11,034 -288 Descending FlightAware ADS-B
Sun 08:59:14 27.9350 -80.1140 169° South 426 789 10,698 -374 Descending FlightAware ADS-B
Sun 08:59:54 27.8530 -80.0950 168° South 440 814 10,485 -470 Descending FlightAware ADS-B
Sun 09:00:24 27.7950 -80.0810 168° South 461 855 10,150 -705 Descending FlightAware ADS-B
Sun 09:01:04 27.7060 -80.0630 170° South 469 869 9,662 -426 Descending FlightAware ADS-B
Sun 09:01:37 27.6520 -80.0540 172° South 469 869 9,632 -788 Descending FlightAware ADS-B
Sun 09:02:09 27.5650 -80.0470 176° South 468 867 8,809 -1,076 Descending FlightAware ADS-B
Sun 09:02:45 27.4900 -80.0400 175° South 465 861 8,412 -467 Descending FlightAware ADS-B
Sun 09:03:39 27.3820 -80.0410 180° South 450 834 8,108 -201 Descending FlightAware ADS-B
Sun 09:04:16 27.3170 -80.0420 181° South 450 834 8,108 -643 Level FlightAware ADS-B
Sun 09:04:53 27.2230 -80.0470 183° South 437 810 7,315 -618 Descending FlightAware ADS-B
Sun 09:05:33 27.1410 -80.0500 182° South 447 827 7,315  Level FlightAware ADS-B
Sun 09:06:08 27.0660 -80.0530 182° South 447 827 7,315  Level FlightAware ADS-B
Sun 09:06:54 26.9800 -80.0570 182° South 447 827 7,315 -255 Level FlightAware ADS-B
Sun 09:07:34 26.8850 -80.0490 176° South 446 826 6,949 -465 Descending FlightAware ADS-B
Sun 09:07:49 26.8590 -80.0360 156° South 433 801 6,888 -271 Descending FlightAware ADS-B
Sun 09:08:01 26.8380 -80.0180 143° Southeast 425 787 6,828 -378 Descending FlightAware ADS-B
Sun 09:08:18 26.8200 -79.9900 126° Southeast 416 771 6,706 -504 Descending FlightAware ADS-B
Sun 09:08:30 26.8110 -79.9660 113° Southeast 412 763 6,584 -686 Descending FlightAware ADS-B
Sun 09:09:06 26.7950 -79.8940 104° East 403 747 6,157 -714 Descending FlightAware ADS-B
Sun 09:09:34 26.7810 -79.8360 105° East 400 740 5,822 -658 Descending FlightAware ADS-B
Sun 09:10:21 26.7210 -79.7720 136° Southeast 379 702 5,334 -599 Descending FlightAware ADS-B
Sun 09:10:29 26.7070 -79.7700 173° South 372 689 5,273 -610 Descending FlightAware ADS-B
Sun 09:11:00 26.6570 -79.7780 188° South 364 674 4,938 -610 Descending FlightAware ADS-B
Sun 09:11:38 26.5940 -79.7930 192° South 355 658 4,572 -863 Descending FlightAware ADS-B
Sun 09:12:12 26.5400 -79.8060 192° South 352 652 3,901 -1,228 Descending FlightAware ADS-B
Sun 09:12:48 26.4820 -79.8200 192° South 354 655 3,139 -737 Descending FlightAware ADS-B
Sun 09:13:24 26.4310 -79.8360 196° South 293 542 3,018 -392 Descending FlightAware ADS-B
Sun 09:13:44 26.4050 -79.8480 202° Southwest 295 546 2,774 -594 Descending FlightAware ADS-B
Sun 09:14:04 26.3810 -79.8610 206° Southwest 295 546 2,621 -416 Descending FlightAware ADS-B
Sun 09:14:28 26.3570 -79.8840 221° Southwest 286 529 2,469 -249 Descending FlightAware ADS-B
Sun 09:14:48 26.3360 -79.9040 220° Southwest 289 536 2,438 -57 Descending FlightAware ADS-B
Sun 09:15:00 26.3230 -79.9160 220° Southwest 288 533 2,438 -161 Level FlightAware ADS-B
Sun 09:15:22 26.3020 -79.9370 222° Southwest 284 526 2,347 -395 Descending FlightAware ADS-B
Sun 09:15:37 26.2870 -79.9510 220° Southwest 284 526 2,195 -522 Descending FlightAware ADS-B
Sun 09:15:57 26.2670 -79.9700 220° Southwest 281 520 2,042 -445 Descending FlightAware ADS-B
Sun 09:16:14 26.2510 -79.9850 220° Southwest 280 518 1,920 -346 Descending FlightAware ADS-B
Sun 09:16:34 26.2310 -80.0050 222° Southwest 280 518 1,829 -141 Descending FlightAware ADS-B
Sun 09:16:53 26.2110 -80.0240 220° Southwest 281 520 1,829  Level FlightAware ADS-B
Sun 09:17:12 26.1930 -80.0410 220° Southwest 281 520 1,829  Level FlightAware ADS-B
Sun 09:17:22 26.1840 -80.0510 225° Southwest 282 523 1,829  Level FlightAware ADS-B
Sun 09:17:30 26.1790 -80.0610 241° Southwest 282 523 1,829  Level FlightAware ADS-B
Sun 09:17:38 26.1750 -80.0720 248° West 282 523 1,829  Level FlightAware ADS-B
Sun 09:17:58 26.1670 -80.0990 252° West 269 499 1,829  Level FlightAware ADS-B
Sun 09:18:18 26.1600 -80.1230 252° West 249 462 1,829 -137 Level FlightAware ADS-B
Sun 09:18:38 26.1520 -80.1470 250° West 240 444 1,737 -326 Descending FlightAware ADS-B
Sun 09:18:46 26.1510 -80.1570 264° West 239 443 1,676 -430 Descending FlightAware ADS-B
Sun 09:19:12 26.1510 -80.1900 270° West 236 438 1,494 -381 Descending FlightAware ADS-B
Sun 09:19:34 26.1500 -80.2150 267° West 235 435 1,372 -298 Descending FlightAware ADS-B
Sun 09:19:55 26.1500 -80.2400 270° West 224 415 1,280 -178 Descending FlightAware ADS-B
Sun 09:20:15 26.1500 -80.2620 270° West 213 394 1,250 -89 Descending FlightAware ADS-B
Sun 09:20:36 26.1500 -80.2830 270° West 211 391 1,219 -41 Descending FlightAware ADS-B
Sun 09:21:00 26.1500 -80.3110 270° West 209 388 1,219  Level FlightAware ADS-B
Sun 09:21:20 26.1490 -80.3320 267° West 207 383 1,219  Level FlightAware ADS-B
Sun 09:21:25 26.1470 -80.3380 250° West 203 377 1,219 -183 Level FlightAware ADS-B
Sun 09:21:30 26.1450 -80.3410 233° Southwest 204 378 1,189 -366 Descending FlightAware ADS-B
Sun 09:21:35 26.1410 -80.3450 222° Southwest 203 377 1,158 -366 Descending FlightAware ADS-B
Sun 09:21:45 26.1320 -80.3500 207° Southwest 201 372 1,097 -488 Descending FlightAware ADS-B
Sun 09:21:50 26.1270 -80.3500 180° South 193 357 1,036 -427 Descending FlightAware ADS-B
Sun 09:22:15 26.1050 -80.3480 175° South 199 369 884 -366 Descending FlightAware ADS-B
Sun 09:22:25 26.0970 -80.3440 156° South 197 365 823 -457 Descending FlightAware ADS-B
Sun 09:22:35 26.0910 -80.3350 127° Southeast 196 364 732 -439 Descending FlightAware ADS-B
Sun 09:22:50 26.0850 -80.3230 119° Southeast 194 359 640 -244 Descending FlightAware ADS-B
Sun 09:23:05 26.0800 -80.3080 110° East 189 349 610 -59 Descending FlightAware ADS-B
Sun 09:23:21 26.0780 -80.2940 99° East 193 357 610  Level FlightAware ADS-B
Sun 09:23:30 26.0780 -80.2840 90° East 187 346 610 -215 Level FlightAware ADS-B
Sun 09:23:55 26.0780 -80.2600 90° East 178 330 488 -278 Descending FlightAware ADS-B
Sun 09:24:16 26.0770 -80.2430 94° East 162 299 396 -229 Descending FlightAware ADS-B
Sun 09:24:35 26.0770 -80.2280 90° East 147 272 335 -224 Descending FlightAware ADS-B
Sun 09:25:05 26.0770 -80.2060 90° East 129 238 213 -203 Descending FlightAware ADS-B
Sun 09:25:20 26.0770 -80.1970 90° East 128 237 183 -193 Descending FlightAware ADS-B
Sun 09:25:43 26.0770 -80.1820 90° East 130 241 91 -110 Descending FlightAware ADS-B
Sun 09:26:10 26.0770 -80.1660 90° East 130 241 91  Level FlightAware ADS-B
Sun 09:32:00 26.0667 -80.1500 103° East  Level FlightAware Approximate
Sun 09:33:00 26.0726 -80.1527 103° East  Level Estimated

Login

Don't have an account? Register now (free) for customized features, flight alerts, and more!